Location: Kervinic
(48.4279°N, 4.7373°W)
Time: 16:14:51
(UTC+00:00)

Thor Agena Rocket - Pass Details

Date: 09 April 2020
Orbit: 760 x 807 km, 99.0° (Epoch: 02 June)

Event Time Altitude Azimuth Distance (km) Brightness Sun altitude
Rises 23:10:55 0° 13° (NNE) 3,242 7.5 -31.5°
Reaches altitude 10° 23:13:13 10° 11° (N) 2,316 6.6 -31.6°
Enters shadow 23:16:56 48° 355° (N) 1,003 4.3 -31.8°
